Location: Albany
(35.0170°S, 117.8920°E)
Time: 17:17:16
(UTC+08:00)

Transit 2A - Pass Details

Date: 22 January 2021
Orbit: 601 x 958 km, 66.7° (Epoch: 02 March)

Event Time Altitude Azimuth Distance (km) Brightness Sun altitude
Rises 01:03:09 0° 200° (SSW) 3,533 10.2 -34.3°
Reaches altitude 10° 01:05:47 10° 193° (SSW) 2,628 9.4 -34.2°
Maximum altitude 01:11:38 42° 122° (ESE) 1,329 7.4 -33.9°
Enters shadow 01:12:17 41° 107° (ESE) 1,355 7.3 -33.9°
Drops below altitude 10° 01:17:37 10° 52° (NE) 2,691 - -33.6°
Sets 01:20:19 0° 45° (NE) 3,625 - -33.4°
